Content
SEND FEEDBACK

Daily
Averages
Monthly
Summary
United States of America

PYGA BEACH, GUAM


Home > North America > United States > Guam
Elevation: 20 feet     Latitude: 13 17N     Longitude: 144 39E

WEATHER
 
SELECT A DAY
Number of Records: 356,611;   Date Range: 1/1/95 - 12/19/14
 
SHARE

PRINT THIS DATA

[ ← Previous Day ]
WEATHER ALMANAC - DECEMBER 7, 2013
[ Next Day → ]
[ °C ]   °F
Weather ElementAverageHighLow
Temperature79.1 °F82.4 °F (11:58 am)77 °F (9:08 am)
Dewpoint74.5 °F80.6 °F (11:53 am) (7:00 pm)
Humidity95.5 %100 % (8:53 am)83 % (5:53 am)
Barometer29.88 in29.93 in (9:11 am)29.81 in (2:58 am)
Wind Speed10.2 mph18.4 mph (2:40 pm)
Wind Gust19.6 mph (8:48 am)
Weather ElementAverage
Visibility8.5 mi
Wind DirectionENE (68.1 °)

Weather ElementTotal
Precipitation0.14 in
Cooling Degree Days14.7 (Base 65)
Growing Degree Days29.7 (Base 50)
Averaged from 73 records on December 7, 2013
WEATHER CONDITIONS BREAKOUT
WIND DIRECTION BREAKOUT
WEATHER BY HOUR - DECEMBER 7, 2013
[ °C ]   °F
Local TimeTemperatureDewpointHumidityBarometerVisibilityWind DirectionWind SpeedGust SpeedPrecipitationEventsConditions
1:58 AM77.5 °F74.3 °F90 %29.82 in10.0 miENE (60°)9.2 mphClear
2:58 AM77.7 °F74.5 °F90 %29.81 in10.0 miENE (60°)11.5 mphPartly Cloudy
3:58 AM77.4 °F73.9 °F89 %29.81 in10.0 miENE (60°)10.4 mphClear
4:58 AM77.2 °F74.1 °F90 %29.81 in10.0 miENE (60°)11.5 mphClear
5:53 AM78.8 °F73.4 °F83 %29.84 in10.0 miENE (60°)9.2 mphMostly Cloudy
5:58 AM78.1 °F74.3 °F88 %29.81 in10.0 miENE (60°)11.5 mphMostly Cloudy
6:03 AM78.8 °F75.2 °F89 %29.85 in10.0 miENE (60°)10.4 mphMostly Cloudy
6:43 AM78.8 °F75.2 °F89 %29.86 in10.0 miENE (60°)9.2 mphMostly Cloudy
6:58 AM79.0 °F74.7 °F87 %29.84 in10.0 miENE (60°)10.4 mphMostly Cloudy
7:58 AM80.1 °F75.7 °F87 %29.87 in10.0 miENE (60°)9.2 mphMostly Cloudy
8:13 AM80.6 °F75.2 °F84 %29.91 in10.0 miENE (60°)10.4 mphMostly Cloudy
8:48 AM80.6 °F77.0 °F89 %29.92 in7.0 miEast (80°)17.3 mph19.6 mphRainLight Rain
8:53 AM78.8 °F78.8 °F100 %29.92 in2.0 miEast (80°)16.1 mph19.6 mphRainLight Rain
8:58 AM78.1 °F78.1 °F100 %29.89 in1.5 miENE (70°)12.7 mph0.01 inRainLight Rain
9:03 AM78.8 °F78.8 °F100 %29.92 in2.0 miENE (60°)10.4 mphRainLight Rain
9:08 AM77.0 °F77.0 °F100 %29.92 in6.0 miENE (70°)10.4 mphRainLight Rain
9:11 AM78.8 °F77.0 °F94 %29.93 in10.0 miEast (80°)10.4 mphMostly Cloudy
9:21 AM78.8 °F0.0 °F29.92 in10.0 miENE (60°)10.4 mphScattered Clouds
9:26 AM80.6 °F78.8 °F94 %29.92 in10.0 miENE (60°)10.4 mphMostly Cloudy
9:31 AM80.6 °F78.8 °F94 %29.92 in10.0 miENE (70°)10.4 mphMostly Cloudy
9:36 AM78.8 °F78.8 °F100 %29.92 in10.0 miENE (70°)10.4 mphScattered Clouds
9:45 AM78.8 °F78.8 °F100 %29.92 in10.0 miENE (60°)8.1 mphRainLight Rain
9:50 AM78.8 °F78.8 °F100 %29.93 in10.0 miENE (70°)9.2 mphLight Drizzle
9:58 AM79.0 °F78.8 °F99 %29.91 in10.0 miENE (70°)10.4 mph0.00 inRainRain
10:03 AM78.8 °F78.8 °F100 %29.92 in10.0 miENE (70°)10.4 mphRainLight Rain
10:08 AM78.8 °F78.8 °F100 %29.92 in10.0 miENE (70°)8.1 mphRainLight Rain
10:18 AM78.8 °F0.0 °F29.92 in10.0 miEast (80°)9.2 mphRainLight Rain
10:21 AM78.8 °F77.0 °F94 %29.92 in10.0 miENE (70°)10.4 mphScattered Clouds
10:46 AM78.8 °F78.8 °F100 %29.92 in9.0 miENE (70°)9.2 mphMostly Cloudy
10:47 AM78.8 °F78.8 °F100 %29.92 in6.0 miENE (60°)9.2 mphRainLight Rain
10:58 AM78.6 °F78.3 °F99 %29.89 in3.0 miEast (80°)5.8 mph0.03 inRainLight Rain
11:03 AM78.8 °F78.8 °F100 %29.92 in9.0 miEast (90°)6.9 mphRainLight Rain
11:06 AM78.8 °F78.8 °F100 %29.91 in10.0 miEast (80°)5.8 mphMostly Cloudy
11:11 AM78.8 °F78.8 °F100 %29.91 in3.0 miENE (60°)13.8 mphRainLight Rain
11:16 AM78.8 °F0.0 °F29.91 in1.8 miENE (60°)10.4 mphRainHeavy Rain
11:21 AM78.8 °F78.8 °F100 %29.91 in3.0 miENE (60°)8.1 mphRainLight Rain
11:23 AM78.8 °F78.8 °F100 %29.90 in6.0 miENE (60°)9.2 mphScattered Clouds
11:48 AM80.6 °F78.8 °F94 %29.89 in10.0 miNE (50°)8.1 mphMostly Cloudy
11:53 AM80.6 °F80.6 °F100 %29.89 in10.0 miNNE (30°)8.1 mphMostly Cloudy
11:58 AM82.4 °F80.6 °F94 %29.86 in10.0 miNE (40°)8.1 mph0.03 inMostly Cloudy
12:05 PM82.4 °F78.8 °F89 %29.89 in10.0 miENE (60°)9.2 mphRainLight Rain
12:15 PM80.6 °F80.6 °F100 %29.88 in6.0 miEast (80°)9.2 mphRainLight Rain
12:20 PM80.6 °F80.6 °F100 %29.88 in6.0 miEast (80°)9.2 mphRainLight Rain
12:22 PM80.6 °F80.6 °F100 %29.88 in9.0 miEast (90°)8.1 mphMostly Cloudy
12:37 PM80.6 °F80.6 °F100 %29.87 in10.0 miEast (90°)11.5 mphMostly Cloudy
12:42 PM80.6 °F80.6 °F100 %29.88 in10.0 miEast (90°)11.5 mphScattered Clouds
12:58 PM80.8 °F79.3 °F95 %29.83 in10.0 miEast (90°)12.7 mph0.01 inPartly Cloudy
1:48 PM80.6 °F78.8 °F94 %29.86 in10.0 miENE (70°)10.4 mphMostly Cloudy
1:51 PM80.6 °F77.0 °F89 %29.86 in5.0 miENE (60°)8.1 mphRainLight Rain
1:58 PM80.1 °F78.3 °F94 %29.83 in4.0 miENE (60°)11.5 mph0.00 inRainLight Rain
2:01 PM80.6 °F78.8 °F94 %29.86 in7.0 miENE (60°)10.4 mphMostly Cloudy
2:11 PM80.6 °F78.8 °F94 %29.85 in10.0 miENE (60°)6.9 mphScattered Clouds
2:20 PM80.6 °F78.8 °F94 %29.85 in10.0 miENE (70°)10.4 mphRainLight Rain
2:40 PM78.8 °F78.8 °F100 %29.86 in10.0 miEast (80°)18.4 mphRainLight Rain
2:45 PM77.0 °F77.0 °F100 %29.85 in10.0 miEast (80°)15.0 mphRainLight Rain
2:55 PM77.0 °F77.0 °F100 %29.85 in3.0 miEast (80°)12.7 mphRainLight Rain
2:58 PM77.0 °F77.0 °F100 %29.82 in3.0 miEast (80°)11.5 mph0.03 inRainLight Rain
3:13 PM77.0 °F75.2 °F94 %29.85 in9.0 miENE (70°)4.6 mphRainLight Rain
3:18 PM77.0 °F75.2 °F94 %29.85 in10.0 miENE (60°)5.8 mphRainLight Rain
3:38 PM77.0 °F75.2 °F94 %29.85 in10.0 miENE (70°)6.9 mphPartly Cloudy
3:58 PM78.8 °F75.2 °F89 %29.82 in10.0 miENE (60°)6.9 mph0.03 inPartly Cloudy
4:58 PM78.4 °F78.3 °F99 %29.83 in10.0 miENE (70°)10.4 mphScattered Clouds
5:03 PM78.8 °F78.8 °F100 %29.86 in10.0 miENE (70°)13.8 mphMostly Cloudy
5:18 PM78.8 °F78.8 °F100 %29.87 in10.0 miEast (80°)11.5 mphLight Drizzle
5:33 PM78.8 °F78.8 °F100 %29.87 in10.0 miENE (70°)10.4 mphRainLight Rain
5:36 PM78.8 °F78.8 °F100 %29.87 in10.0 miENE (70°)9.2 mphScattered Clouds
5:58 PM78.3 °F76.5 °F94 %29.86 in10.0 miEast (80°)10.4 mph0.00 inClear
6:58 PM79.2 °F77.4 °F94 %29.86 in10.0 miENE (70°)10.4 mphMostly Cloudy
7:58 PM79.3 °F77.2 °F93 %29.86 in10.0 miENE (60°)11.5 mphMostly Cloudy
8:58 PM79.2 °F77.4 °F94 %29.86 in10.0 miENE (60°)12.7 mphPartly Cloudy
9:58 PM79.2 °F77.2 °F94 %29.86 in10.0 miENE (70°)10.4 mphMostly Cloudy
10:58 PM79.2 °F76.1 °F90 %29.86 in10.0 miENE (70°)11.5 mphScattered Clouds
11:58 PM79.0 °F76.8 °F93 %29.86 in10.0 miENE (70°)11.5 mphMostly Cloudy
Hourly data recorded from PGUA, located miles away from Pyga Beach, Guam







STORIES FROM OUR PARTNERS